Weather History for Agadir Al Massira, Morocco

Change the Weather History Date:

Wednesday, April 9, 2014

  Actual Average Record
Temperature  
Mean Temperature 72 °F -  
Max Temperature 85 °F - - ()
Min Temperature 58 °F - - ()
Cooling Degree Days 6    
Growing Degree Days 22 (Base 50)    
Moisture  
Dew Point 55 °F    
Average Humidity 60    
Maximum Humidity 83    
Minimum Humidity 30    
Precipitation  
Precipitation 0.00 in - - ()
Sea Level Pressure  
Sea Level Pressure 29.94 in    
Wind  
Wind Speed 5 mph ()    
Max Wind Speed 13 mph    
Max Gust Speed -    
Visibility 6.0 miles    
Events      
T = Trace of Precipitation, MM = Missing Value Source: Averaged Metar Reports

Daily Weather History Graph

Daily Weather History Graph

Search for Another Location

Airport:

Trip Planner

Search our weather history database for the weather conditions in past years. The results will help you decide how hot, cold, wet, or windy it might be!

Date:

Astronomy

Apr. 09, 2014 Rise Set
Actual Time 7:17 AM WEST 8:01 PM WEST
Civil Twilight 6:53 AM WEST 8:25 PM WEST
Nautical Twilight 6:24 AM WEST 8:54 PM WEST
Astronomical Twilight 5:55 AM WEST 9:23 PM WEST
Moon 2:58 PM WEST (4/9) 3:36 AM WEST (4/9)
Length of Visible Light 13h 32m
Length of Day
12h 43m
Waxing Gibbous, 69% of the Moon is Illuminated
Apr 9
Waxing Gibbous
Apr 15
Full
Apr 22
Last Quarter
Apr 29
New
May 7
First Quarter

Hourly Weather History & Observations

Time (WEST) Temp. Heat Index Dew Point Humidity Pressure Visibility Wind Dir Wind Speed Gust Speed Precip Events Conditions
12:00 AM 64.4 °F - 57.2 °F 77% 29.95 in - SW 3.5 mph - N/A   Clear
1:00 AM 64 °F - 58 °F 75% 29.96 in 6 mi SE 4.6 mph - -  
1:00 AM 64.4 °F - 59.0 °F 83% 29.95 in - SE 4.6 mph - N/A   Clear
2:00 AM 64.4 °F - 57.2 °F 77% 29.95 in - SE 6.9 mph - N/A   Clear
3:00 AM 62.6 °F - 55.4 °F 77% 29.92 in - East 6.9 mph - N/A   Clear
4:00 AM 64.4 °F - 51.8 °F 64% 29.98 in - NNW 2.3 mph - N/A   Clear
5:00 AM 60.8 °F - 50.0 °F 68% 29.92 in - North 3.5 mph - N/A   Clear
6:00 AM 60.8 °F - 51.8 °F 72% 29.92 in - NW 4.6 mph - N/A   Clear
7:00 AM 60 °F - 50 °F 60% 29.94 in 6 mi East 5.8 mph - -  
7:00 AM 60.8 °F - 50.0 °F 68% 29.92 in - East 5.8 mph - N/A   Clear
8:00 AM 60.8 °F - 51.8 °F 72% 29.95 in - SSW 3.5 mph - N/A   Clear
9:00 AM 62.6 °F - 57.2 °F 82% 29.98 in - West 3.5 mph - N/A   Clear
10:00 AM 67 °F - 56 °F 61% 30.00 in 6 mi West 3.5 mph - -  
10:00 AM 68.0 °F - 57.2 °F 68% 29.98 in - West 3.5 mph - N/A   Clear
11:00 AM 75.2 °F - 53.6 °F 47% 30.01 in - Variable 2.3 mph - N/A   Clear
1:00 PM 85 °F - 58 °F 30% 29.96 in 6 mi West 6.9 mph - -  
1:00 PM 84.2 °F 82.8 °F 53.6 °F 35% 29.98 in - West 8.1 mph - N/A   Clear
2:00 PM 84.2 °F 83.8 °F 59.0 °F 42% 29.95 in - West 11.5 mph - N/A   Clear
3:00 PM 80.6 °F 80.8 °F 57.2 °F 45% 29.92 in - West 11.5 mph - N/A   Clear
4:00 PM 78 °F - 57 °F 38% 29.90 in 6 mi West 12.7 mph - -  
4:00 PM 78.8 °F - 57.2 °F 47% 29.89 in - West 12.7 mph - N/A   Clear
5:00 PM 77.0 °F - 57.2 °F 50% 29.89 in - West 12.7 mph - N/A   Clear
6:00 PM 78.8 °F - 53.6 °F 42% 29.89 in - WSW 10.4 mph - N/A   Clear
7:00 PM 77 °F - 53 °F 33% 29.89 in 6 mi SW 6.9 mph - -  
7:00 PM 77.0 °F - 53.6 °F 44% 29.89 in - SW 6.9 mph - N/A   Clear
8:00 PM 71.6 °F - 55.4 °F 57% 29.89 in - SSW 6.9 mph - N/A   Clear
9:00 PM 68.0 °F - 57.2 °F 68% 29.92 in - WSW 3.5 mph - N/A   Clear
10:00 PM 64 °F - 57 °F 72% 29.95 in 6 mi WNW 4.6 mph - -   Clear
10:00 PM 64.4 °F - 57.2 °F 77% 29.95 in - WNW 4.6 mph - N/A   Clear
11:00 PM 64.4 °F - 57.2 °F 77% 29.95 in - North 3.5 mph - N/A   Clear